Hourly Weather Wegliska

Today, 11 July, Saturday

Time Temperature Precipitation Wind Pressure Humidity
00:00 +19°C° 0.8 mm 4 mps 738 mmHg 92%
01:00 +17°C° 0.8 mm 5 mps 739 mmHg 92%
02:00 +17°C° 0.6 mm 4 mps 739 mmHg 92%
03:00 +16°C° 0.6 mm 3 mps 739 mmHg 92%
04:00 +16°C° 0.6 mm 2 mps 739 mmHg 92%
05:00 +14°C° 0 mm 3 mps 740 mmHg 89%
06:00 +14°C° 0 mm 3 mps 740 mmHg 86%
07:00 +14°C° 0 mm 4 mps 741 mmHg 83%
08:00 +14°C° 0.1 mm 4 mps 741 mmHg 83%
09:00 +14°C° 0.1 mm 3 mps 742 mmHg 83%
10:00 +13°C° 0.1 mm 3 mps 742 mmHg 83%
11:00 +13°C° 1 mm 3 mps 742 mmHg 85%
12:00 +13°C° 1 mm 3 mps 742 mmHg 88%
13:00 +12°C° 1 mm 3 mps 743 mmHg 91%
14:00 +14°C° 1.2 mm 2 mps 743 mmHg 89%
15:00 +14°C° 1.2 mm 1 mps 743 mmHg 86%
16:00 +14°C° 1.2 mm 1 mps 743 mmHg 84%
17:00 +14°C° 0.1 mm 1 mps 744 mmHg 85%
18:00 +14°C° 0.1 mm 1 mps 744 mmHg 87%
19:00 +14°C° 0.1 mm 1 mps 744 mmHg 88%
20:00 +13°C° 0.1 mm 1 mps 744 mmHg 89%
21:00 +13°C° 0.1 mm 2 mps 744 mmHg 91%
22:00 +13°C° 0.1 mm 2 mps 744 mmHg 92%
23:00 +12°C° 0 mm 2 mps 744 mmHg 92%

Tomorrow, 12 July, Sunday

Time Temperature Precipitation Wind Pressure Humidity
00:00 +12°C° 0 mm 2 mps 744 mmHg 93%
01:00 +12°C° 0 mm 2 mps 744 mmHg 94%
02:00 +12°C° 0 mm 2 mps 744 mmHg 94%
03:00 +10°C° 0 mm 2 mps 744 mmHg 94%
04:00 +10°C° 0 mm 2 mps 744 mmHg 94%
05:00 +12°C° 0 mm 2 mps 744 mmHg 90%
06:00 +13°C° 0 mm 2 mps 744 mmHg 85%
07:00 +14°C° 0 mm 2 mps 744 mmHg 80%
08:00 +16°C° 0.1 mm 2 mps 744 mmHg 73%
09:00 +17°C° 0.1 mm 2 mps 744 mmHg 65%
10:00 +19°C° 0.1 mm 3 mps 744 mmHg 58%
11:00 +19°C° 0.3 mm 3 mps 744 mmHg 57%
12:00 +20°C° 0.3 mm 3 mps 744 mmHg 56%
13:00 +20°C° 0.3 mm 3 mps 744 mmHg 54%
14:00 +20°C° 0.4 mm 4 mps 744 mmHg 58%
15:00 +19°C° 0.4 mm 4 mps 744 mmHg 62%
16:00 +19°C° 0.4 mm 4 mps 744 mmHg 65%
17:00 +18°C° 0.1 mm 4 mps 744 mmHg 68%
18:00 +17°C° 0.1 mm 3 mps 744 mmHg 71%
19:00 +17°C° 0.1 mm 2 mps 744 mmHg 74%
20:00 +15°C° 0 mm 2 mps 744 mmHg 75%
21:00 +14°C° 0 mm 2 mps 744 mmHg 75%
22:00 +13°C° 0 mm 2 mps 745 mmHg 76%
23:00 +13°C° 0 mm 2 mps 745 mmHg 76%

Day after tomorrow, 13 July, Monday

Time Temperature Precipitation Wind Pressure Humidity
00:00 +12°C° 0 mm 2 mps 745 mmHg 77%
01:00 +12°C° 0 mm 2 mps 745 mmHg 77%
02:00 +10°C° 0 mm 2 mps 744 mmHg 79%
03:00 +11°C° 0 mm 1 mps 744 mmHg 81%
04:00 +11°C° 0 mm 1 mps 744 mmHg 83%
05:00 +12°C° 0 mm 2 mps 744 mmHg 79%
06:00 +14°C° 0 mm 2 mps 744 mmHg 76%
07:00 +15°C° 0 mm 2 mps 744 mmHg 72%
08:00 +16°C° 0 mm 3 mps 744 mmHg 67%
09:00 +18°C° 0 mm 3 mps 744 mmHg 63%
10:00 +19°C° 0 mm 4 mps 744 mmHg 58%
11:00 +19°C° 0 mm 4 mps 744 mmHg 56%
12:00 +20°C° 0 mm 4 mps 743 mmHg 54%
13:00 +20°C° 0 mm 4 mps 743 mmHg 52%
14:00 +20°C° 0 mm 4 mps 743 mmHg 54%
15:00 +20°C° 0 mm 3 mps 743 mmHg 56%
16:00 +20°C° 0 mm 3 mps 742 mmHg 58%
17:00 +19°C° 0.1 mm 3 mps 742 mmHg 65%
18:00 +18°C° 0.1 mm 2 mps 742 mmHg 72%
19:00 +17°C° 0.1 mm 2 mps 742 mmHg 79%
20:00 +16°C° 0 mm 2 mps 742 mmHg 81%
21:00 +15°C° 0 mm 1 mps 742 mmHg 84%
22:00 +14°C° 0 mm 1 mps 742 mmHg 87%
23:00 +13°C° 0 mm 1 mps 742 mmHg 88%

14 July, Tuesday

Time Temperature Precipitation Wind Pressure Humidity
00:00 +13°C° 0 mm 1 mps 742 mmHg 90%
01:00 +12°C° 0 mm 1 mps 742 mmHg 91%
02:00 +12°C° 0 mm 1 mps 742 mmHg 92%
03:00 +12°C° 0 mm 1 mps 742 mmHg 92%
04:00 +11°C° 0 mm 1 mps 742 mmHg 93%
05:00 +13°C° 0 mm 1 mps 742 mmHg 88%
06:00 +15°C° 0 mm 1 mps 742 mmHg 83%
07:00 +16°C° 0 mm 1 mps 742 mmHg 77%
08:00 +18°C° 0.1 mm 1 mps 742 mmHg 72%
09:00 +19°C° 0.1 mm 1 mps 742 mmHg 66%
10:00 +20°C° 0.1 mm 2 mps 742 mmHg 60%
11:00 +21°C° 0.1 mm 1 mps 742 mmHg 58%
12:00 +22°C° 0.1 mm 1 mps 741 mmHg 56%
13:00 +22°C° 0.1 mm 1 mps 741 mmHg 54%
14:00 +22°C° 0.1 mm 1 mps 741 mmHg 54%
15:00 +22°C° 0.1 mm 1 mps 741 mmHg 55%
16:00 +22°C° 0.1 mm 1 mps 740 mmHg 55%
17:00 +21°C° 0 mm 1 mps 740 mmHg 60%
18:00 +21°C° 0 mm 1 mps 740 mmHg 65%
19:00 +20°C° 0 mm 1 mps 740 mmHg 70%
20:00 +18°C° 0 mm 1 mps 740 mmHg 73%
21:00 +16°C° 0 mm 1 mps 740 mmHg 77%
22:00 +15°C° 0 mm 1 mps 740 mmHg 80%
23:00 +15°C° 0 mm 1 mps 740 mmHg 82%

15 July, Wednesday

Time Temperature Precipitation Wind Pressure Humidity
00:00 +14°C° 0 mm 1 mps 740 mmHg 84%
01:00 +14°C° 0 mm 1 mps 740 mmHg 86%
02:00 +14°C° 0 mm 1 mps 740 mmHg 87%
03:00 +14°C° 0 mm 1 mps 740 mmHg 87%
04:00 +13°C° 0 mm 1 mps 740 mmHg 88%
05:00 +15°C° 0 mm 1 mps 740 mmHg 82%
06:00 +18°C° 0 mm 1 mps 740 mmHg 76%
07:00 +20°C° 0 mm 1 mps 740 mmHg 70%
08:00 +20°C° 0 mm 2 mps 740 mmHg 65%
09:00 +21°C° 0 mm 2 mps 740 mmHg 59%
10:00 +24°C° 0 mm 2 mps 740 mmHg 54%
11:00 +24°C° 0 mm 2 mps 739 mmHg 52%
12:00 +25°C° 0 mm 2 mps 739 mmHg 51%
13:00 +25°C° 0 mm 2 mps 739 mmHg 49%
14:00 +25°C° 0 mm 2 mps 739 mmHg 49%
15:00 +26°C° 0 mm 2 mps 739 mmHg 48%
16:00 +26°C° 0 mm 2 mps 738 mmHg 47%
17:00 +25°C° 0 mm 2 mps 738 mmHg 52%
18:00 +24°C° 0 mm 1 mps 738 mmHg 58%
19:00 +22°C° 0 mm 1 mps 738 mmHg 63%
20:00 +21°C° 0 mm 1 mps 738 mmHg 65%
21:00 +19°C° 0 mm 2 mps 738 mmHg 68%
22:00 +18°C° 0 mm 2 mps 738 mmHg 70%
23:00 +18°C° 0 mm 2 mps 738 mmHg 73%

16 July, Thursday

Time Temperature Precipitation Wind Pressure Humidity
00:00 +18°C° 0 mm 3 mps 737 mmHg 76%
01:00 +18°C° 0 mm 3 mps 737 mmHg 78%
02:00 +17°C° 0 mm 3 mps 737 mmHg 78%
03:00 +17°C° 0 mm 3 mps 737 mmHg 79%
04:00 +17°C° 0 mm 4 mps 737 mmHg 79%
05:00 +18°C° 0 mm 4 mps 737 mmHg 79%
06:00 +18°C° 0 mm 4 mps 737 mmHg 80%
07:00 +17°C° 0 mm 5 mps 738 mmHg 81%
08:00 +19°C° 0 mm 5 mps 738 mmHg 79%
09:00 +19°C° 0 mm 5 mps 738 mmHg 77%
10:00 +19°C° 0 mm 5 mps 738 mmHg 75%
11:00 +19°C° 0.1 mm 5 mps 738 mmHg 73%
12:00 +20°C° 0.1 mm 5 mps 738 mmHg 71%
13:00 +20°C° 0.1 mm 5 mps 738 mmHg 70%
14:00 +20°C° 0.2 mm 5 mps 738 mmHg 69%
15:00 +20°C° 0.2 mm 5 mps 737 mmHg 68%
16:00 +21°C° 0.2 mm 5 mps 737 mmHg 67%
17:00 +20°C° 0.1 mm 5 mps 737 mmHg 70%
18:00 +19°C° 0.1 mm 4 mps 737 mmHg 72%
19:00 +18°C° 0.1 mm 3 mps 737 mmHg 75%
20:00 +17°C° 0 mm 3 mps 738 mmHg 78%
21:00 +16°C° 0 mm 3 mps 738 mmHg 81%
22:00 +14°C° 0 mm 2 mps 738 mmHg 83%
23:00 +14°C° 0 mm 2 mps 739 mmHg 85%
Show more